Date String (YYYY-MM-DD hh:mm:ss) UTC,Instrument flags,Ambient pressure (hPa),Sample flow (lpm),Bypass flow (lpm),Sample temperature (°C),Ambient temperature (°C),ASC tube jacket temperature (°C),LED temperature (°C),Box temperature (°C),Sample RH (%),Mass concentration (μg/m³),Mass concentration (μg/m³)
DateTimeUTC,F1_M11,P_M11,Q1_M11,Q2_M11,T1_M11,T2_M11,T3_M11,T4_M11,T5_M11,U1_M11,X2_M11,X0_M11
2021-08-15 06:00:00,,0830.8,5.01,0.00,29.2,25.5,00.0,38.4,30.5,25.8,0013.65,0027.94
2021-08-15 06:01:00,,0830.7,4.99,0.00,29.1,26.0,00.0,38.3,30.6,26.0,0013.52,0028.85
2021-08-15 06:02:00,,0830.8,5.00,0.00,29.1,26.4,00.0,38.3,30.7,26.2,0013.35,0028.77
2021-08-15 06:03:00,,0830.7,5.00,0.00,29.1,26.9,00.0,38.3,30.7,26.0,0013.26,0029.21
2021-08-15 06:04:00,,0830.7,5.00,0.00,29.1,27.2,00.0,38.2,30.8,26.0,0013.25,0029.20
2021-08-15 06:05:00,,0830.6,4.99,0.00,29.1,27.5,00.0,38.2,30.9,25.9,0013.21,0029.31
2021-08-15 06:06:00,,0830.6,5.02,0.00,29.2,27.7,00.0,38.2,31.0,26.1,0013.24,0029.52
2021-08-15 06:07:00,,0830.6,5.00,0.00,29.2,27.9,00.0,38.2,31.0,25.9,0013.29,0030.36
2021-08-15 06:08:00,,0830.6,5.00,0.00,29.2,28.1,00.0,38.3,31.1,25.8,0013.26,0030.28
2021-08-15 06:09:00,,0830.6,5.00,0.00,29.3,28.2,00.0,38.3,31.1,25.5,0013.22,0031.08
2021-08-15 06:10:00,,0830.6,5.00,0.00,29.3,28.3,00.0,38.3,31.2,25.4,0013.17,0030.88
2021-08-15 06:11:00,,0830.6,5.01,0.00,29.4,28.4,00.0,38.3,31.3,25.3,0013.13,0030.50
2021-08-15 06:12:00,,0830.7,4.99,0.00,29.4,28.5,00.0,38.3,31.3,24.9,0013.10,0028.55
2021-08-15 06:13:00,,0830.8,5.01,0.00,29.4,28.6,00.0,38.4,31.4,24.7,0013.15,0028.35
2021-08-15 06:14:00,,0830.8,5.01,0.00,29.5,28.7,00.0,38.4,31.4,24.7,0013.12,0028.63
2021-08-15 06:15:00,,0830.8,4.99,0.00,29.5,28.7,00.0,38.4,31.4,24.6,0013.04,0028.89
2021-08-15 06:16:00,,0830.8,5.00,0.00,29.6,28.8,00.0,38.5,31.5,24.6,0012.95,0028.43
2021-08-15 06:17:00,,0830.7,4.99,0.00,29.6,27.9,00.0,38.5,31.2,24.5,0012.88,0027.75
2021-08-15 06:18:00,,0830.7,5.00,0.00,29.4,25.9,00.0,38.4,30.6,24.7,0012.83,0026.42
2021-08-15 06:19:00,,0830.6,5.02,0.00,29.2,25.3,00.0,38.4,30.5,24.9,0012.80,0026.85
2021-08-15 06:20:00,,0830.6,5.00,0.00,29.2,25.6,00.0,38.4,30.5,25.2,0012.70,0027.78
2021-08-15 06:21:00,,0830.6,4.99,0.00,29.1,26.0,00.0,38.3,30.6,25.3,0012.68,0029.09
2021-08-15 06:22:00,,0830.6,5.00,0.00,29.1,26.5,00.0,38.3,30.7,25.2,0012.65,0030.32
2021-08-15 06:23:00,,0830.6,5.00,0.00,29.1,26.9,00.0,38.3,30.7,25.1,0012.65,0030.80
2021-08-15 06:24:00,,0830.6,4.99,0.00,29.1,27.2,00.0,38.2,30.8,24.9,0012.59,0030.00
2021-08-15 06:25:00,,0830.6,5.01,0.00,29.1,27.5,00.0,38.2,30.9,24.9,0012.57,0028.87
2021-08-15 06:26:00,,0830.6,4.99,0.00,29.1,27.7,00.0,38.2,30.9,24.9,0012.54,0028.16
2021-08-15 06:27:00,,0830.7,5.02,0.00,29.2,27.9,00.0,38.3,31.0,24.9,0012.51,0028.45
2021-08-15 06:28:00,,0830.6,5.00,0.00,29.2,28.1,00.0,38.3,31.1,24.8,0012.46,0028.41
2021-08-15 06:29:00,,0830.6,4.99,0.00,29.3,28.2,00.0,38.3,31.1,24.7,0012.40,0028.08
2021-08-15 06:30:00,,0830.6,5.01,0.00,29.3,28.3,00.0,38.3,31.2,24.8,0012.36,0028.09
2021-08-15 06:31:00,,0830.6,4.99,0.00,29.3,28.4,00.0,38.3,31.2,24.7,0012.33,0027.20
2021-08-15 06:32:00,,0830.5,5.02,0.00,29.4,28.5,00.0,38.3,31.3,24.7,0012.31,0026.48
2021-08-15 06:33:00,,0830.6,4.98,0.00,29.4,28.5,00.0,38.4,31.3,24.6,0012.28,0025.48
2021-08-15 06:34:00,,0830.6,5.01,0.00,29.5,28.6,00.0,38.4,31.3,24.5,0012.24,0025.95
2021-08-15 06:35:00,,0830.6,4.98,0.00,29.5,28.6,00.0,38.4,31.4,24.4,0012.24,0025.93
2021-08-15 06:36:00,,0830.6,5.01,0.00,29.6,28.7,00.0,38.4,31.4,24.3,0012.23,0027.02
2021-08-15 06:37:00,,0830.6,5.00,0.00,29.6,28.7,00.0,38.5,31.4,24.4,0012.30,0027.23
2021-08-15 06:38:00,,0830.6,5.01,0.00,29.6,28.4,00.0,38.5,31.3,24.5,0012.41,0027.85
2021-08-15 06:39:00,,0830.6,4.99,0.00,29.5,26.7,00.0,38.5,30.8,24.6,0012.47,0029.13
2021-08-15 06:40:00,,0830.6,5.00,0.00,29.4,26.2,00.0,38.5,30.7,24.7,0012.56,0030.07
2021-08-15 06:41:00,,0830.6,4.99,0.00,29.3,26.4,00.0,38.4,30.8,24.7,0012.66,0029.29
2021-08-15 06:42:00,,0830.6,5.00,0.00,29.2,26.8,00.0,38.4,30.8,24.9,0012.73,0028.27
2021-08-15 06:43:00,,0830.6,4.99,0.00,29.2,27.2,00.0,38.4,30.9,25.0,0012.70,0028.29
2021-08-15 06:44:00,,0830.6,5.01,0.00,29.3,27.5,00.0,38.4,31.0,24.8,0012.74,0028.44
2021-08-15 06:45:00,,0830.6,5.01,0.00,29.3,27.7,00.0,38.4,31.1,24.5,0012.75,0028.32
2021-08-15 06:46:00,,0830.6,4.99,0.00,29.3,27.9,00.0,38.4,31.1,24.4,0012.73,0028.56
2021-08-15 06:47:00,,0830.6,5.01,0.00,29.3,28.1,00.0,38.4,31.2,24.3,0012.74,0027.91
2021-08-15 06:48:00,,0830.6,5.00,0.00,29.4,28.2,00.0,38.4,31.2,24.1,0012.74,0028.54
2021-08-15 06:49:00,,0830.6,5.01,0.00,29.4,28.3,00.0,38.4,31.2,24.0,0012.68,0027.76
2021-08-15 06:50:00,,0830.6,4.99,0.00,29.4,28.4,00.0,38.4,31.3,23.9,0012.63,0026.68
2021-08-15 06:51:00,,0830.6,5.00,0.00,29.5,28.5,00.0,38.5,31.3,23.8,0012.54,0025.84
2021-08-15 06:52:00,,0830.5,4.99,0.00,29.5,28.5,00.0,38.5,31.3,23.7,0012.46,0026.07
2021-08-15 06:53:00,,0830.6,5.01,0.00,29.6,28.6,00.0,38.5,31.4,23.6,0012.41,0026.10
2021-08-15 06:54:00,,0830.5,4.98,0.00,29.6,28.7,00.0,38.5,31.4,23.6,0012.40,0026.15
2021-08-15 06:55:00,,0830.5,5.01,0.00,29.6,28.4,00.0,38.6,31.3,23.5,0012.37,0025.65
2021-08-15 06:56:00,,0830.5,4.99,0.00,29.5,26.8,00.0,38.5,30.9,23.7,0012.35,0026.42
2021-08-15 06:57:00,,0830.5,5.01,0.00,29.4,26.2,00.0,38.5,30.8,23.7,0012.33,0026.22
2021-08-15 06:58:00,,0830.5,5.00,0.00,29.3,26.5,00.0,38.5,30.8,23.6,0012.29,0025.51
2021-08-15 06:59:00,,0830.4,5.00,0.00,29.3,26.8,00.0,38.5,30.9,23.8,0012.22,0024.53
